TimeMST,TemperatureF,Dew PointF,Humidity,Sea Level PressureIn,VisibilityMPH,Wind Direction,Wind SpeedMPH,Gust SpeedMPH,PrecipitationIn,Events,Conditions,WindDirDegrees,DateUTC
12:53 AM,19.9,15.1,81,30.37,10.0,West,15.0,-,N/A,,Overcast,260,2013-02-15 07:53:00
1:53 AM,19.9,17.1,89,30.36,10.0,West,11.5,-,N/A,,Overcast,260,2013-02-15 08:53:00
2:53 AM,19.0,16.0,88,30.36,10.0,WSW,11.5,-,N/A,,Overcast,250,2013-02-15 09:53:00
3:42 AM,21.2,17.6,86,30.22,10.0,West,10.4,-,N/A,,Overcast,260,2013-02-15 10:42:00
3:53 AM,19.9,17.1,89,30.36,6.0,West,6.9,-,N/A,,Overcast,260,2013-02-15 10:53:00
4:04 AM,19.4,17.6,93,30.22,2.5,West,6.9,-,0.00,Snow,Light Snow,280,2013-02-15 11:04:00
4:19 AM,19.4,17.6,93,30.22,3.0,West,8.1,-,0.01,Snow,Light Snow,270,2013-02-15 11:19:00
4:36 AM,19.4,17.6,93,30.21,2.0,West,9.2,-,0.01,Snow,Light Snow,260,2013-02-15 11:36:00
4:53 AM,19.9,18.0,92,30.36,2.0,WSW,9.2,-,0.01,Snow,Light Snow,250,2013-02-15 11:53:00
5:16 AM,19.4,17.6,93,30.22,4.0,West,9.2,-,0.00,Snow,Light Snow,260,2013-02-15 12:16:00
5:30 AM,19.4,17.6,93,30.22,5.0,West,8.1,-,0.00,,Overcast,270,2013-02-15 12:30:00
5:44 AM,19.4,17.6,93,30.22,2.5,West,8.1,-,0.00,Snow,Light Snow,270,2013-02-15 12:44:00
5:53 AM,19.9,18.0,92,30.39,3.0,West,8.1,-,0.01,Snow,Light Snow,270,2013-02-15 12:53:00
6:20 AM,19.4,17.6,93,30.23,3.0,West,10.4,-,0.00,Snow,Light Snow,270,2013-02-15 13:20:00
6:24 AM,19.4,17.6,93,30.23,2.5,West,10.4,-,0.00,Snow,Light Snow,280,2013-02-15 13:24:00
6:31 AM,19.4,17.6,93,30.23,1.8,North,9.2,-,0.00,Snow,Light Snow,360,2013-02-15 13:31:00
6:53 AM,19.0,17.1,92,30.43,1.8,North,8.1,-,0.01,Snow,Light Snow,360,2013-02-15 13:53:00
7:17 AM,19.4,17.6,93,30.25,2.5,North,5.8,-,0.01,Snow,Light Snow,360,2013-02-15 14:17:00
7:35 AM,19.4,17.6,93,30.26,3.0,North,3.5,-,0.01,,Overcast,360,2013-02-15 14:35:00
7:51 AM,19.4,17.6,93,30.27,2.0,North,3.5,-,0.01,Snow,Light Snow,350,2013-02-15 14:51:00
7:53 AM,19.0,17.1,92,30.45,1.5,North,3.5,-,0.01,Snow,Light Snow,350,2013-02-15 14:53:00
8:53 AM,19.9,18.0,92,30.47,1.0,NNW,6.9,-,0.01,Snow,Light Snow,330,2013-02-15 15:53:00
9:10 AM,21.2,17.6,86,30.29,0.8,NNW,8.1,-,0.01,Snow,Light Snow,330,2013-02-15 16:10:00
9:20 AM,21.2,17.6,86,30.30,0.8,NNW,8.1,-,0.01,Snow,Light Snow,340,2013-02-15 16:20:00
9:31 AM,21.2,17.6,86,30.30,1.0,North,8.1,-,0.01,Snow,Light Snow,350,2013-02-15 16:31:00
9:53 AM,21.0,19.0,92,30.48,1.8,North,5.8,-,0.02,Snow,Light Snow,350,2013-02-15 16:53:00
10:41 AM,21.2,17.6,86,30.30,2.5,NNW,4.6,-,0.00,Snow,Light Snow,340,2013-02-15 17:41:00
10:43 AM,21.2,17.6,86,30.30,3.0,North,4.6,-,0.00,Snow,Light Snow,350,2013-02-15 17:43:00
10:53 AM,21.9,18.0,85,30.48,3.0,Calm,Calm,-,0.00,Snow,Light Snow,0,2013-02-15 17:53:00
11:00 AM,23.0,19.4,86,30.30,2.5,Calm,Calm,-,0.00,Snow,Light Snow,0,2013-02-15 18:00:00
11:11 AM,23.0,17.6,80,30.31,4.0,Calm,Calm,-,0.00,Snow,Light Snow,0,2013-02-15 18:11:00
11:53 AM,24.1,19.0,81,30.44,10.0,Calm,Calm,-,0.00,,Overcast,0,2013-02-15 18:53:00
12:53 PM,24.1,19.0,81,30.42,10.0,West,10.4,-,N/A,,Overcast,260,2013-02-15 19:53:00
1:53 PM,26.1,19.9,78,30.40,10.0,West,9.2,-,0.00,,Overcast,260,2013-02-15 20:53:00
2:53 PM,27.0,19.0,72,30.38,10.0,West,8.1,-,N/A,,Overcast,270,2013-02-15 21:53:00
3:53 PM,24.1,18.0,77,30.38,10.0,SW,4.6,-,N/A,,Clear,220,2013-02-15 22:53:00
4:53 PM,21.0,17.1,85,30.36,10.0,SSE,5.8,-,N/A,,Clear,150,2013-02-15 23:53:00
5:53 PM,24.1,19.9,84,30.34,10.0,SSW,11.5,-,N/A,,Overcast,210,2013-02-16 00:53:00
6:53 PM,27.0,19.9,75,30.30,10.0,SW,12.7,-,N/A,,Overcast,220,2013-02-16 01:53:00
7:53 PM,28.9,19.9,69,30.28,10.0,SW,13.8,-,N/A,,Overcast,230,2013-02-16 02:53:00
8:53 PM,30.0,19.9,66,30.25,10.0,SW,11.5,-,N/A,,Overcast,230,2013-02-16 03:53:00
9:53 PM,28.9,19.9,69,30.22,10.0,WSW,18.4,-,N/A,,Overcast,240,2013-02-16 04:53:00
10:53 PM,28.9,19.9,69,30.20,10.0,WSW,15.0,-,N/A,,Overcast,250,2013-02-16 05:53:00
11:53 PM,28.9,18.0,64,30.17,10.0,West,19.6,-,N/A,,Overcast,260,2013-02-16 06:53:00